STARLINK-11262, 62009

Orbit data source: Space-Track

STARLINK-11262, 62009 is a payload satellite owned by SpaceX/Seattle (US) in LEO that was launched on Mon, 18 Nov 2024 UTC via an FALCON 9 launch vehicle from the Air Force Western Test Range (AFWTR). Payload-class satellites include a variety of spacecraft equipped with specific instruments for various scientific and technological missions. These include communications satellites like Starlink; space stations such as the ISS; scientific satellites like the Hubble; Earth observation satellites from companies like Planet Labs, Umbra, and HawkEye 360; GPS; miniature CubeSats for education and research; and military/defense satellites.

Loading next visibility...
Identifier
62009, 2024-213B
Orbit
LEO
Country
Flag of USUS
Related business
Manufacturer
SpaceX/Seattle
Mission
Operational Commercial Communications
Bus & Motor
STARLINK V2MD, Unknown motor
Mass
960 kg wet, ~910 kg dry
Launch date (UTC)
2024-11-18 (10 months ago)
Launch vehicle
FALCON 9
Launch site
Air Force Western Test Range (AFWTR)
Object type
Payload
Rocket body
Debris
Shape & HBR
Box + 2 Pan, 14.5 m
Radar Cross Section
36.964 m², Large (>1 m²)

Expand to show TLE details & history
Last TLE update: 17 hours ago

TLE from 17 hours ago
0 STARLINK-11262
1 62009U 24213B   25259.50506815  .00160711  00000-0  13055-2 0  9994
2 62009  53.1569 180.2162 0001463  89.1784 270.9401 15.69716616 47551
Epoch: 2025-09-16T12:07Z
TLE epoch observation values (Epoch: 2025-09-16T12:07:17.888Z)
Latitude
-0.00005°
Longitude
2.69722°
Altitude
360.607 km
Speed
7.694 km/s
True Right ascension
12h 00m 51s
True Declination
0° 00' 00"
Sunlit
Object was in daylight at epoch
Visualization orbit readout
Latitude
Unknown
Longitude
Unknown
Altitude
Unknown
Speed
Unknown
Apparent Right ascension
Unknown
Apparent Declination
Unknown
Sunlit
N/A
Visualization observer readout
Local Sidereal Time
22:09:52
Azimuth
Unknown
Elevation
Unknown
Doppler factor
Unknown
Orbital elements
Apogee altitude
360.955 km
Perigee altitude
358.983 km
Semi-major axis
6,738.106 km
Eccentricity
0.00015
Inclination
53.1569°
RAAN
180.2162°
Arg. of periapsis
89.1784°
True anomaly
270.92334°
Mean anomaly
270.9401°
Eccentric anomaly
270.93172°
Mean motion
3.92407 °/min
Orbital period
91.74 mins
BSTAR
0.0013055
Loading maneuver chart data...
Computing Atmospheric mass density...
Loading historical data...
Loading historical data...
Loading historical data...
Loading historical data...
Loading historical data...
Loading historical data...
Loading historical data...

Documentation

Showing up to 5 results
|